Regional Weather Roundup
Issued by NWS

Home | Current Version | Previous Version | Graphics & Text | Print | Product List | Glossary On
Versions: 1 2 3 4 5 6 7 8 9 10 11 12 13 14 15 16 17 18 19 20 21 22 23 24 25 26 27 28 29 30 31 32 33 34 35 36 37 38 39 40 41 42 43 44 45 46 47 48 49 50
000
ASUS43 KOAX 210802
RWRNE

WEATHER ROUNDUP FOR NEBRASKA
NATIONAL WEATHER SERVICE OMAHA NE
300 AM CDT THU SEP 21 2017

NOTES: SATELLITE DATA IS BEING USED TO AUGMENT CLOUD COVER ABOVE
       12000 FEET.
       "FAIR" INDICATES FEW OR NO CLOUDS BELOW 12,000 FEET WITH NO
       SIGNIFICANT WEATHER AND/OR OBSTRUCTIONS TO VISIBILITY.


NEZ001>004-019>022-054>056-210900-
NEBRASKA PANHANDLE

CITY           SKY/WX    TMP DP  RH WIND       PRES   REMARKS
SCOTTSBLUFF    CLEAR     57  36  45 E13       29.78F
ALLIANCE       CLEAR     54  36  50 S17       29.81S
CHADRON        CLEAR     64  32  30 S31G43    29.71F
GORDON         FAIR      61  37  39 S13G21    29.79F
KIMBALL        CLEAR     55  34  44 SE10      29.83F
SIDNEY         CLEAR     56  34  43 S14       29.83F
$$

NEZ057>060-069>072-079>082-210900-
SOUTHWEST NEBRASKA

CITY           SKY/WX    TMP DP  RH WIND       PRES   REMARKS
NORTH PLATTE   CLEAR     48  44  86 E10       29.86F
IMPERIAL       CLEAR     58  40  51 SE17G24   29.84F
LEXINGTON      CLEAR     51  44  76 SE5       29.88F
MCCOOK         CLEAR     53  44  71 E9        29.85F
OGALLALA       CLEAR     51  39  65 E5        29.85S
$$

NEZ005>010-023>029-035>040-094-210900-
NORTH CENTRAL NEBRASKA

CITY           SKY/WX    TMP DP  RH WIND       PRES   REMARKS
VALENTINE      CLEAR     55  43  63 E7        29.83F
AINSWORTH      CLEAR     55  45  68 S10       29.85F
BROKEN BOW     CLEAR     45  40  82 CALM      29.88F
O`NEILL        CLEAR     52  47  83 SE3       29.89S
ORD            CLEAR     47  43  86 CALM      29.88S
THEDFORD       CLEAR     55  43  65 SE9       29.86F
$$

NEZ041-046>049-061>064-073>077-083>087-210900-
SOUTH CENTRAL NEBRASKA

CITY           SKY/WX    TMP DP  RH WIND       PRES   REMARKS
GRAND ISLAND   CLEAR     56  52  86 E5        29.88F
AURORA         CLEAR     55  51  88 E5        29.87F
HASTINGS       CLEAR     57  50  77 E6        29.88F
HEBRON         MOCLDY    65  56  74 E3        29.85F
HOLDREGE       CLEAR     53  46  79 E6        29.88F
KEARNEY        CLEAR     54  48  80 N3        29.89S
YORK           PTCLDY    59  54  82 E5        29.87F
$$

NEZ011>018-030>034-042>045-210900-
NORTHEAST NEBRASKA

CITY           SKY/WX    TMP DP  RH WIND       PRES   REMARKS
NORFOLK        CLEAR     54  49  83 E3        29.89S
ALBION         CLEAR     48  47  97 CALM      29.89F
BLAIR          CLEAR     62  54  73 NE8       29.88F
COLUMBUS       CLEAR     54  50  86 NE5       29.89F
FREMONT        CLEAR     57  53  86 CALM      29.89F
TEKAMAH        CLEAR     54  51  90 N5        29.89F
WAYNE          CLEAR     48  46  92 CALM      29.91S
$$

NEZ050>053-065>068-078-088>093-210900-
SOUTHEAST NEBRASKA

CITY           SKY/WX    TMP DP  RH WIND       PRES   REMARKS
LINCOLN        MOCLDY    61  54  77 N6        29.88F
OMAHA EPPLEY   PTCLDY    62  54  74 NW5       29.88F
BEATRICE       MOCLDY    71  57  62 E8        29.85F
FALLS CITY     PTCLDY    69  64  84 E3        29.85F
NEBRASKA CITY  PTCLDY    69  60  74 E6        29.87F
PLATTSMOUTH    MOCLDY    66  58  75 E5        29.88F
$$

NEZ044-045-051>053-067-210900-
OMAHA AREA

CITY           SKY/WX    TMP DP  RH WIND       PRES   REMARKS
OMAHA EPPLEY   PTCLDY    62  54  74 NW5       29.88F
BLAIR          CLEAR     62  54  73 NE8       29.88F
FREMONT        CLEAR     57  53  86 CALM      29.89F
MILLARD        PTCLDY    67  55  66 CALM      29.88F
OFFUTT AFB     CLEAR     66  55  66 CALM      29.87F
PLATTSMOUTH    MOCLDY    66  58  75 E5        29.88F
WAHOO          FAIR      57  55  92 CALM      29.88S
$$




USA.gov is the U.S. government's official web portal to all federal, state and local government web resources and services.